Showing default

KUIPER-00252, 67157

Orbit data source: Space-Track

KUIPER-00252, 67157 is a payload satellite owned by Kuiper Systems (US) in LEO that was launched on Mon, 15 Dec 2025 UTC via an ATLAS V 551 launch vehicle from the Air Force Eastern Test Range (AFETR). Payload-class satellites include a variety of spacecraft equipped with specific instruments for various scientific and technological missions. These include communications satellites like Starlink; space stations such as the ISS; scientific satellites like the Hubble; Earth observation satellites from companies like Planet Labs, Umbra, and HawkEye 360; GPS; miniature CubeSats for education and research; and military/defense satellites.

Loading next visibility...
Identifier
67157, 2025-301AA
Orbit
LEO
Country
Flag of USUS
Related business
Manufacturer
Kuiper Systems
Mission
Operational Commercial Communications
Bus & Motor
KUIPER, Unknown motor
Mass
~490 kg wet, ~490 kg dry
Launch date (UTC)
2025-12-15 (6 months ago)
Launch vehicle
ATLAS V 551
Launch site
Air Force Eastern Test Range (AFETR)
Object type
Payload
Rocket body
Debris
Shape & HBR
Box + 2 Pan, 3.4 m
Radar Cross Section
2.326 m², Large (>1 m²)

Expand to show TLE details & history
Last TLE update: 17 hours ago

TLE from 17 hours ago
0 KUIPER-00252
1 67157U 25301AA  26171.14093527  .00000500  00000-0  94582-4 0  9992
2 67157  51.9029 327.5750 0000644 121.3928 238.7097 14.79931662 28973
Epoch: 2026-06-20T03:22Z
TLE epoch observation values (Epoch: 2026-06-20T03:22:56.807Z)
Latitude
-0.00005°
Longitude
8.47844°
Altitude
630.521 km
Speed
7.544 km/s
True Right ascension
21h 50m 17s
True Declination
0° 00' 00"
Sunlit
Object was in full shadow at epoch
Visualization orbit readout
Latitude
Unknown
Longitude
Unknown
Altitude
Unknown
Speed
Unknown
Apparent Right ascension
Unknown
Apparent Declination
Unknown
Sunlit
N/A
Visualization observer readout
Local Sidereal Time
07:14:23
Azimuth
Unknown
Elevation
Unknown
Doppler factor
Unknown
Orbital elements
Apogee altitude
630.442 km
Perigee altitude
629.539 km
Semi-major axis
7,008.128 km
Eccentricity
0.00006
Inclination
51.9029°
RAAN
327.575°
Arg. of periapsis
121.3928°
True anomaly
238.70339°
Mean anomaly
238.7097°
Eccentric anomaly
238.70655°
Mean motion
3.69948 °/min
Orbital period
97.31 mins
BSTAR
0.000094582
Loading maneuver chart data...
Computing Atmospheric mass density...
Loading historical data...
Loading historical data...
Loading historical data...
Loading historical data...
Loading historical data...
Loading historical data...
Loading historical data...

Documentation

Showing up to 5 results
|